Home > Weather > Freising > Past weeks

Flag for Germany Weather for the Past 2 Weeks in Freising, Bavaria, Germany

Now
54 °F

Passing clouds.


Feels Like: 53 °F
Forecast: 38 / 60 °F
Wind: 3 mph from North

Location: Munich / Franz Josef Strauss Airport

Current Time: May 4, 2016 at 6:04:54 PM

Latest Report: May 4, 2016 at 5:20 PM


Visibility: N/A

Pressure: 30.27 "Hg

Humidity: 35%

Dew Point: 27 °F

Location of FreisingLocation

Historic Weather in Freising — Graph

°F

Freising Temperature Yesterday

Maximum temperature yesterday: 63 °F (at 12:50 PM)
Minimum temperature yesterday: 43 °F (at 1:50 AM)
Average temperature yesterday: 52 °F

High & Low Weather Summary for the Past Weeks

 TemperatureHumidityPressure
High66 °F (Apr 22, 2:50 PM)100% (Apr 21, 3:20 AM)30.39 "Hg (Apr 21, 3:20 AM)
Low27 °F (Apr 29, 5:50 AM)22% (Apr 30, 4:50 PM)29.59 "Hg (Apr 26, 9:20 AM)
Average46 °F70%30.00 "Hg
* Reported Apr 19 4:20 PM — May 4 4:20 PM, Freising, Weather by CustomWeather, © 2016

Note: Actual official high and low records may vary slightly from our data, if they occured in-between our weather recording intervals... More about our weather records

Advertising

Freising Weather History for the Previous 24 Hours

Scroll right to see more
 ConditionsComfort  
Time TempWeatherWind HumidityBarometerVisibility
4:20 PM
Wed, May 4
55 °FPassing clouds.7 mph33%30.27 "HgN/A
3:50 PM54 °FSunny.6 mph35%30.27 "Hg10 mi
3:20 PM55 °FPassing clouds.8 mph33%30.27 "HgN/A
2:50 PM55 °FSunny.6 mph33%30.30 "Hg10 mi
2:20 PM55 °FPassing clouds.6 mph38%30.30 "HgN/A
1:20 PM54 °FPassing clouds.10 mph38%30.30 "HgN/A
12:50 PM54 °FPassing clouds.9 mph35%30.30 "HgN/A
12:20 PM54 °FScattered clouds.8 mph38%30.30 "HgN/A
11:50 AM52 °FScattered clouds.12 mph41%30.30 "HgN/A
11:20 AM52 °FScattered clouds.13 mph47%30.30 "HgN/A
10:50 AM50 °FScattered clouds.10 mph54%30.30 "HgN/A
9:50 AM48 °FScattered clouds.9 mph66%30.33 "HgN/A
9:20 AM46 °FScattered clouds.8 mph76%30.33 "HgN/A
8:20 AM45 °FPartly sunny.9 mph81%30.30 "HgN/A
7:50 AM45 °FPartly sunny.7 mph81%30.30 "HgN/A
7:20 AM45 °FPartly sunny.8 mph81%30.30 "HgN/A
6:20 AM45 °FPassing clouds.3 mph81%30.30 "HgN/A
5:50 AM45 °FPassing clouds.6 mph81%30.30 "HgN/A
5:20 AM45 °FPassing clouds.7 mph81%30.27 "HgN/A
4:50 AM45 °FPassing clouds.7 mph81%30.27 "HgN/A
4:20 AM45 °FPassing clouds.9 mph81%30.27 "HgN/A
3:50 AM45 °FPassing clouds.7 mph81%30.27 "HgN/A
3:20 AM45 °FPassing clouds.7 mph81%30.24 "HgN/A
2:50 AM45 °FPassing clouds.12 mph81%30.24 "HgN/A
2:20 AM46 °FPartly cloudy.12 mph71%30.24 "HgN/A
1:50 AM46 °FPassing clouds.9 mph76%30.24 "HgN/A
12:50 AM46 °FPassing clouds.10 mph76%30.24 "HgN/A
12:20 AM48 °FPassing clouds.12 mph71%30.21 "HgN/A
11:50 PM
Tue, May 3
48 °FPartly cloudy.9 mph71%30.21 "HgN/A
11:20 PM48 °FPartly cloudy.16 mph76%30.21 "HgN/A
10:20 PM48 °FPassing clouds.10 mph76%30.18 "HgN/A
9:50 PM50 °FPassing clouds.10 mph76%30.18 "HgN/A
9:20 PM50 °FPartly sunny.9 mph71%30.15 "HgN/A
8:50 PM50 °FPartly sunny.12 mph71%30.15 "HgN/A
8:20 PM50 °FPartly sunny.12 mph71%30.12 "HgN/A
7:50 PM52 °FPartly sunny.15 mph72%30.12 "HgN/A
7:20 PM50 °FPartly sunny.10 mph94%30.09 "HgN/A
6:50 PM50 °FPartly sunny.12 mph94%30.09 "HgN/A
6:20 PM48 °FThunderstorms. Partly sunny.17 mph87%30.09 "HgN/A
Weather by CustomWeather, © 2016

See weather overviewHow to use our weather pages